Location: A O Calhoun Middle School
(33.2198°N, 97.1397°W)
Time: 07:16:47
(UTC+00:00)

Sich 1 - Visible Passes

Search period start: 25 June 2022 00:00
Search period end: 05 July 2022 00:00
Orbit: 592 x 624 km, 82.5° (Epoch: 24 June)

Date Brightness Start Highest point End Pass type
(mag) Time Alt. Az. Time Alt. Az. Time Alt. Az.
25 Jun 5.3 10:11:46 10° SE 10:15:15 24° E 10:18:43 10° NE visible
26 Jun 4.2 10:24:54 10° SSE 10:29:01 43° E 10:33:07 10° NNE visible
27 Jun 3.1 10:38:30 10° S 10:42:50 83° E 10:47:10 10° N visible
29 Jun 5.6 09:30:27 10° SE 09:33:18 17° E 09:36:09 10° NE visible
30 Jun 4.7 09:43:13 10° SSE 09:47:02 31° E 09:50:50 10° NNE visible
01 Jul 3.5 09:56:39 10° S 10:00:49 58° E 10:05:02 10° NNE visible
02 Jul 2.9 10:10:59 14° SSW 10:14:40 74° W 10:18:57 10° N visible
03 Jul 5.7 08:49:31 10° ESE 08:51:22 13° E 08:53:12 10° ENE visible
03 Jul 3.6 10:25:16 14° SW 10:28:34 38° W 10:32:35 10° N visible
04 Jul 5.1 09:02:35 14° SE 09:05:03 23° E 09:08:24 10° NE visible
04 Jul 4.4 10:39:32 11° SW 10:42:32 21° WNW 10:45:51 10° NNW visible
